Tracking 19720 objects as of 26-Jun-2019
HD Live streaming from Space Station
objects crossing your sky now

COSMOS 2302

Track COSMOS 2302 now!
10-day predictions
COSMOS 2302 is classified as:


NORAD ID: 23444
Int'l Code: 1994-086D
Perigee: 1,420.0 km
Apogee: 1,430.3 km
Inclination: 82.6 °
Period: 114.2 minutes
Semi major axis: 7796 km
RCS: 1.0234 m2 (large)
Launch date: December 26, 1994
Source: Commonwealth of Independent States (former USSR) (CIS)
Launch site: PLESETSK MISSILE AND SPACE COMPLEX (PKMTR)
aabbcc
Your satellite tracking list
Your tracking list is empty




NASA's NSSDC Master Catalog

Two Line Element Set (TLE):
1 23444U 94086D   19175.43085859 +.00000009 +00000-0 -11336-4 0  9997
2 23444 082.5642 153.7861 0006621 178.9886 349.3149 12.61202691127394
Source of the keplerian elements: AFSPC